This is the latest recevied weather packets stored in our database for station/object W6ORV. If no packets are shown the sender has not sent any weather packets the latest 10 day(s).
| Time | Temp. | Humidity | Pressure | Rain* | Wind** | Luminosity | Snow |
|---|---|---|---|---|---|---|---|
| 1777771032 | 19.44° C | 61% | 4295.1 hPa | 0 mm | - | 137 W/m² | - |
| 1777770729 | 20° C | 63% | 4295.3 hPa | 0 mm | - | 157 W/m² | - |
| 1777770425 | 20° C | 60% | 4295.1 hPa | 0 mm | - | 184 W/m² | - |
| 1777770122 | 20° C | 61% | 4295 hPa | 0 mm | - | 127 W/m² | - |
| 1777769819 | 20.56° C | 60% | 4295.1 hPa | 0 mm | - | 223 W/m² | - |
| 1777769516 | 21.11° C | 58% | 4295 hPa | 0 mm | - | 235 W/m² | - |
| 1777769212 | 21.11° C | 59% | 4295.2 hPa | 0 mm | - | 258 W/m² | - |
| 1777768911 | 21.67° C | 57% | 4295 hPa | 0 mm | - | 269 W/m² | - |
| 1777768608 | 21.11° C | 58% | 4294.9 hPa | 0 mm | - | 285 W/m² | - |
| 1777768305 | 21.67° C | 57% | 4295.2 hPa | 0 mm | - | 294 W/m² | - |
| 1777768001 | 21.67° C | 56% | 4295.2 hPa | 0 mm | - | 323 W/m² | - |
| 1777767698 | 21.67° C | 56% | 4295.1 hPa | 0 mm | - | 349 W/m² | - |
| 1777767394 | 21.67° C | 56% | 4295 hPa | 0 mm | - | 354 W/m² | - |
| 1777767091 | 21.67° C | 56% | 4294.9 hPa | 0 mm | - | 327 W/m² | - |
| 1777766789 | 21.67° C | 57% | 4295.1 hPa | 0 mm | - | 376 W/m² | - |
| 1777766486 | 22.22° C | 56% | 4294.9 hPa | 0 mm | - | 395 W/m² | - |
| 1777766182 | 22.22° C | 55% | 4294.7 hPa | 0 mm | - | 425 W/m² | - |
| 1777765881 | 21.67° C | 57% | 4294.9 hPa | 0 mm | - | 422 W/m² | - |
| 1777765576 | 22.22° C | 55% | 4295 hPa | 0 mm | - | 440 W/m² | - |
| 1777765274 | 22.22° C | 54% | 4294.9 hPa | 0 mm | - | 470 W/m² | - |
| 1777764969 | 22.78° C | 55% | 4295 hPa | 0 mm | - | 481 W/m² | - |
| 1777764667 | 22.78° C | 54% | 4295.2 hPa | 0 mm | - | 499 W/m² | - |
| 1777764362 | 21.67° C | 55% | 4295 hPa | 0 mm | - | 509 W/m² | - |
| 1777764060 | 21.67° C | 56% | 4295.1 hPa | 0 mm | - | 535 W/m² | - |
| 1777763757 | 21.67° C | 57% | 4295.1 hPa | 0 mm | - | 549 W/m² | - |
* Rain latest hour (hover to see other rain measurements)
** Current wind speed in m/s (hover to see current wind gust speed)